Regional Weather Roundup
Issued by NWS

Home | Current Version | Previous Version | Text Only | Print | Product List | Glossary Off
Versions: 1 2 3 4 5 6 7 8 9 10 11 12 13 14 15 16 17 18 19 20 21 22 23 24 25 26 27 28 29 30 31 32 33 34 35 36 37 38 39 40 41 42 43 44 45 46 47 48 49 50

000
ASUS43 KMPX 300001
RWRMN
WEATHER ROUNDUP FOR MINNESOTA
NATIONAL WEATHER SERVICE TWIN CITIES/CHANHASSEN MN
700 PM CDT MON JUN 29 2015


NOTE: "FAIR" INDICATES FEW OR NO CLOUDS BELOW 12,000 FEET WITH NO
SIGNIFICANT WEATHER AND/OR OBSTRUCTIONS TO VISIBILITY. N/A MEANS
CURRENT SKY AND/OR WEATHER CONDITIONS ARE NOT AVAILABLE.

MNZ060>063-068>070-300100-
   Twin Cities Metro

CITY           SKY/WX    TMP DP  RH WIND       PRES   REMARKS
TWIN CITIES    CLOUDY    81  64  56 W13       29.78R
6HR MIN TEMP:  76; 6HR MAX TEMP:  83; 6HR PCP: TRACE;

ST PAUL        PTSUNNY   71  56  58 NE18G28   29.84R
CRYSTAL        MOSUNNY   82  63  52 NW8       29.77R
BLAINE         RAIN      70  59  68 E12G28    29.82R
LAKEVILLE      MOSUNNY   75  66  73 W7        29.79R
EDEN PRAIRIE   SUNNY     79  64  60 W8        29.78S
6HR MIN TEMP:  72; 6HR MAX TEMP:  84; 6HR PCP: TRACE;

SOUTH ST PAUL  PTSUNNY   73  55  54 NE8G18    29.81R
LAKE ELMO      TSTM      61  59  94 NE3       29.83R VSB 1/2
$$
MNZ001>005-007-008-013>017-022>024-027-028-300100-
   Northwest Minnesota

CITY           SKY/WX    TMP DP  RH WIND       PRES   REMARKS
BEMIDJI        PTSUNNY   75  56  53 N6        29.85R
HALLOCK        SUNNY     72  55  56 N13       29.88S
ROSEAU         SUNNY     75  63  64 N7        29.87S
WARROAD        SUNNY     72  63  73 E8        29.88S
THIEF RVR FALL SUNNY     75  59  57 N14G20    29.87S
CROOKSTON      SUNNY     73  63  68 N12       29.88R
FOSSTON        SUNNY     73  61  64 CALM      29.86S
DETROIT LAKES  SUNNY     73  64  73 NW10G18   29.88S
MOORHEAD       SUNNY     73  64  73 NW10      29.87S
PARK RAPIDS    SUNNY     78  56  46 N10       29.84R
MAHNOMEN       FAIR      76  62  60 NW13      29.85S
$$
MNZ006-009>011-018-025>026-300100-
   North Central Minnesota

CITY           SKY/WX    TMP DP  RH WIND       PRES   REMARKS
BAUDETTE       SUNNY     71  56  58 N8        29.87R
FLAG ISLAND    SUNNY     72  54  53 N9        29.87R
INTL FALLS     SUNNY     71  54  54 N8        29.84F
6HR MIN TEMP:  70; 6HR MAX TEMP:  76;

WASKISH        SUNNY     73  61  64 N8        29.86R
BIG FORK       MOSUNNY  N/A N/A N/A N10G16    29.84R
LONGVILLE      SUNNY     75  57  53 NW3       29.82R
GRAND RAPIDS   SUNNY     75  57  53 N9G18     29.81R
CRANE LAKE     MOSUNNY   68  57  68 N6        29.84F
COOK           SUNNY     70  57  64 NW3       29.83S
WALKER         FAIR      75  58  53 N6        29.83R
$$
MNZ012-019>021-037-300100-
   Northeast Minnesota

CITY           SKY/WX    TMP DP  RH WIND       PRES   REMARKS
DULUTH         MOSUNNY   74  58  57 N12       29.79R
6HR MIN TEMP:  68; 6HR MAX TEMP:  78;

ELY            SUNNY     70  55  60 N5        29.82R
HIBBING        MOSUNNY   73  57  57 N9        29.80S
EVELETH        MOSUNNY   72  61  68 N9G17     29.82S
DULUTH HARBOR  MOSUNNY   73  66  78 CALM      29.76S
GRAND MARAIS     N/A     57  54  89 NE6       29.78R
G MARAIS ARPRT PTSUNNY   64  57  77 N15       29.82R
$$
MNZ029>031-032-039>041-046>048-054>057-064-300100-
   West Central Minnesota

CITY           SKY/WX    TMP DP  RH WIND       PRES   REMARKS
FERGUS FALLS   SUNNY     73  64  73 NW12      29.85S
WHEATON        SUNNY     72  63  73 NW9       29.88R
MORRIS         SUNNY     75  64  69 NW9       29.85R
ALEXANDRIA     SUNNY     75  64  68 NW8       29.86R
ELBOW LAKE     FAIR      73  66  79 NW9       29.86R
WADENA         SUNNY     75  63  64 NW12      29.84R
GLENWOOD       SUNNY     73  64  73 NW10G20   29.85S
APPLETON       SUNNY     79  63  57 N8        29.84S
BENSON         SUNNY     75  63  64 N12       29.84S
ORTONVILLE     SUNNY     79  63  57 NW7       29.86R
MADISON        SUNNY     79  61  53 NW6       29.85S
WILLMAR        FAIR      77  64  65 NW13      29.84R
$$
MNZ033>034-036-042>043-049>051-058-059-300100-
   Central Minnesota

CITY           SKY/WX    TMP DP  RH WIND       PRES   REMARKS
ST CLOUD       SUNNY     79  64  60 NW14      29.78F
6HR MIN TEMP:  79; 6HR MAX TEMP:  83;

SAUK CENTRE    FAIR      76  64  66 NW10      29.82S
PAYNESVILLE    SUNNY     73  64  73 W12       29.82S
AITKIN         SUNNY     77  61  57 NW9       29.78S
PINE RIVER       N/A     79  57  47 N9        29.85R
BRAINERD       SUNNY     78  57  48 N13       29.81R
STAPLES        MOSUNNY   77  61  57 N9        29.82R
LONG PRAIRIE   FAIR      73  63  68 W12       29.83S
LITTLE FALLS   MOSUNNY   79  61  53 NW8       29.80R
LITCHFIELD     SUNNY     79  63  57 NW10G16   29.82S
BUFFALO        SUNNY     78  62  57 W10       29.79F
MAPLE LAKE     SUNNY     79  66  65 W7        29.80S
$$
MNZ037-044-045-052-053-300100-
   East Central Minnesota

CITY           SKY/WX    TMP DP  RH WIND       PRES   REMARKS
PRINCETON      PTSUNNY   75  61  60 E7        29.78R
MORA           LGT RAIN  66  59  77 CALM      29.79F
CAMBRIDGE      PTSUNNY   73  61  64 E5        29.78R
RUSH CITY      CLOUDY    64  61  92 CALM      29.80R
MOOSE LAKE     SUNNY     72  70  94 CALM      29.77R
HINCKLEY       FAIR      70  64  83 CALM      29.78S
CLOQUET        SUNNY     73  57  56 N9        29.78S
MCGREGOR       MOSUNNY   77  59  53 N5        29.79S
$$
MNZ071>073-080-081-089-090-097-098-300100-
   Southwest Minnesota

CITY           SKY/WX    TMP DP  RH WIND       PRES   REMARKS
MONTEVIDEO     SUNNY     77  64  65 N6        29.85S
GRANITE FALLS  SUNNY     76  65  68 W6        29.85S
CANBY          SUNNY     76  64  65 NW7       29.87S
MARSHALL       SUNNY     79  61  53 NW9       29.85F
REDWOOD FALLS  SUNNY     78  64  61 W9        29.83S
OLIVIA         SUNNY     73  63  68 W9        29.82S
PIPESTONE      SUNNY     79  63  57 W7        29.90F
WINDOM         SUNNY     77  63  61 W6        29.86F
WORTHINGTON    SUNNY     75  61  60 W7        29.89F
JACKSON        SUNNY     77  63  61 W7        29.88S
TRACY          SUNNY     78  64  61 W3        29.86F
SLAYTON        SUNNY     77  59  53 W9        29.89F
$$
MNZ065>067-074>077-082>085-091>093-300100-
   South Central Minnesota

CITY           SKY/WX    TMP DP  RH WIND       PRES   REMARKS
MANKATO        SUNNY     79  63  57 W10       29.81F
NEW ULM        SUNNY     75  63  64 W8        29.81F
ST JAMES       SUNNY     77  64  65 W7        29.84F
FAIRMONT       SUNNY     79  61  53 W9        29.84F
GLENCOE        SUNNY     79  66  65 W12G17    29.79F
FARIBAULT      MOSUNNY   77  64  65 W8        29.81S
OWATONNA       MOSUNNY   77  64  65 W9        29.81S
WASECA         MOSUNNY   77  64  65 W7        29.82F
ALBERT LEA     MOSUNNY   77  64  65 W3        29.83S
$$
MNZ078>079-086>088-094>096-300100-
   Southeast Minnesota

CITY           SKY/WX    TMP DP  RH WIND       PRES   REMARKS
ROCHESTER      PTSUNNY   69  56  62 NE20G25   29.84R
6HR MIN TEMP:  69; 6HR MAX TEMP:  81;

RED WING       PTSUNNY   66  57  72 NE10      29.86R
DODGE CENTER   PTSUNNY   77  66  69 W7        29.82R
WINONA         CLOUDY    63  57  82 CALM      29.83F
AUSTIN         CLOUDY    77  64  65 W9G17     29.82R
PRESTON        PTSUNNY   67  55  65 NE21G43   29.86R
$$
ABBREVIATIONS USED IN REMARKS
   TC - TEMPERATURES IN CELSIUS
  WCI - WIND CHILL INDEX
   HX - HEAT INDEX
  VSB - VISIBILITY
$$



USA.gov is the U.S. government's official web portal to all federal, state and local government web resources and services.